Location: Hylvaty SDH
(49.9612°N, 16.4057°E)
Time: 01:30:18
(UTC+01:00)

Transit 4A - Pass Details

Date: 17 August 2020
Orbit: 864 x 981 km, 66.8° (Epoch: 15 January)

Event Time Altitude Azimuth Distance (km) Brightness Sun altitude
Rises 12:08:21 0° 287° (WNW) 3,559 10.7 51.8°
Reaches altitude 10° 12:11:46 10° 306° (NW) 2,641 10.1 52.0°
Maximum altitude 12:15:52 18° 348° (NNW) 2,144 9.6 52.2°
Drops below altitude 10° 12:20:03 10° 30° (NNE) 2,696 10.2 52.4°
Sets 12:23:34 0° 49° (NE) 3,662 10.8 52.5°
